User: anonymous   Login
Location: *
(2.5500°S, 65.9667°W)
Time: 09:36:57
(UTC+00:00)
Language:

STARS - Orbit

View from above orbital plane
View from above orbital plane
View from above satellite
View from above satellite

Ground track
Ground track

The orbit data is extracted from the following two-line orbital elements,

1 33498U 09002G   24146.33542333  .00005025  00000-0  59043-3 0  9997
2 33498  98.1214  60.1135 0011504 117.3355 242.9031 14.85310542826286
Epoch (UTC): 25 May 2024 08:03:00
Eccentricity: 0.0011504
inclination: 98.1214°
perigee height: 604 km
apogee height: 620 km
right ascension of ascending node: 60.1135°
argument of perigee: 117.3355°
revolutions per day: 14.85310542
mean anomaly at epoch: 242.9031°
orbit number at epoch: 82628

The dashed part of the orbit path shows where the satellite is in the earth's shadow,  

DLR